Terug naar catalogus

ONEWEB-0243

ActiefCommunicatiePO
NORAD 48774·PAYLOAD·🇬🇧 United Kingdom

Gelanceerd May 28, 2021 vanaf Vostochny Cosmodrome

Loading…

Volgende Passages (komende 24 uur)

TLE

VersSource: CelesTrak SupGP

Epoch: Sep 14, 2026, 17:51 UTC

1 48774C 21045H   26257.74389306  .00001471  00000+0  39113-2 0  2572
2 48774  87.8973 241.3590 0002483  79.2420 315.8179 13.15542307    15

Volg ONEWEB-0243 in realtime met AllMySat

Download on the App Store